User: anonymous   Login
Location: Unspecified
(0.0000°N, 0.0000°E)
Time: 08:39:37
(UTC+00:00)
Language:

MOS 1-B - Orbit

View from above orbital plane
View from above orbital plane
View from above satellite
View from above satellite

Ground track
Ground track

The orbit data is extracted from the following two-line orbital elements,

1 20478U 90013A   18019.86821806 -.00000116 +00000-0 -51831-4 0  9994
2 20478 099.3258 350.6732 0004782 228.0569 132.0184 13.95444093343751
Epoch (UTC): 19 January 2018 20:50:14
Eccentricity: 0.0004782
inclination: 99.3258°
perigee height: 906 km
apogee height: 913 km
right ascension of ascending node: 350.6732°
argument of perigee: 228.0569°
revolutions per day: 13.95444093
mean anomaly at epoch: 132.0184°
orbit number at epoch: 34375

The dashed part of the orbit path shows where the satellite is in the earth's shadow,  

DLR